RH
88 89 90 93 94 91 93 96 97 98 96 95 86 84 86 82 81 81 80 80 83 85 86 87 84 80 74 68 66 65 65 66 70 68 68 68 64 61 56 52 49 43 39 34 29 28 27 27 29 28 25 22 21 21 19 17 14 14 14 14 14 14 13 12 13 14 15 13 12 12 12 13 13 12 13 12 12 13 12 12 12 12 12 14 14 13 13 12 11 10 9 9 9 9 9 9 9
86 88 90 95 93 90 96 97 95 96 99 96 82 79 81 80 82 79 79 82 84 86 87 87 80 77 68 59 55 51 55 58 55 55 60 61 60 60 56 55 50 37 27 24 25 26 28 27 27 25 23 22 22 21 18 16 14 14 15 15 16 15 14 14 14 15 16 14 13 13 13 14 14 15 14 14 14 14 13 13 13 12 13 13 14 14 13 13 12 11 11 11 10 10 10 9 9
84 87 93 95 95 94 96 97 94 94 99 96 81 79 78 76 79 76 79 82 85 86 84 81 73 66 55 46 40 33 38 41 46 58 65 65 64 65 63 59 48 33 22 20 22 21 22 23 23 22 22 22 21 20 17 15 14 14 15 16 17 16 15 15 16 17 17 15 14 14 14 14 15 16 16 16 16 16 15 15 14 13 13 13 14 14 13 13 13 12 12 12 11 11 10 10 9
85 87 93 96 96 96 98 100 93 92 95 89 81 81 79 77 78 76 81 81 80 79 74 69 56 48 40 32 28 25 29 32 46 62 67 68 65 63 59 50 36 25 19 16 16 15 17 18 19 20 20 20 19 18 16 15 14 15 16 17 17 16 16 16 17 18 18 17 15 15 15 15 16 16 17 17 17 17 17 17 16 14 14 14 14 14 13 13 13 13 12 12 11 11 10 10 9
77 88 91 95 94 92 96 98 94 94 85 78 79 81 81 79 79 80 85 81 73 68 61 51 40 35 29 24 21 21 25 29 37 40 42 44 43 43 38 30 23 19 17 15 15 14 15 16 18 19 19 18 17 16 15 15 15 16 17 18 18 17 17 17 18 19 19 18 16 16 17 17 16 17 18 18 18 18 18 18 17 17 16 15 14 14 14 13 13 13 13 12 11 11 11 10 10
53 79 88 93 92 90 89 90 93 88 70 70 81 82 81 77 75 79 80 73 59 51 43 35 34 33 26 21 20 19 21 24 29 28 28 28 27 28 25 21 19 18 18 17 16 17 17 18 19 19 19 18 17 16 16 15 15 16 17 19 20 19 19 20 20 20 19 19 18 18 18 19 18 18 18 19 19 19 20 19 19 19 18 17 16 15 14 14 13 13 13 12 12 12 11 10 10
23 52 75 85 89 87 87 88 79 67 64 71 75 77 80 74 72 72 68 54 38 32 29 28 33 36 30 23 23 24 23 23 27 29 27 25 25 24 23 22 21 19 18 18 18 19 19 20 20 20 20 19 18 17 17 16 17 17 19 21 21 21 22 22 23 22 20 20 20 19 19 20 20 21 20 20 20 21 21 21 21 20 20 20 18 17 15 15 14 13 13 12 12 12 11 10 10
8 30 56 67 76 79 79 74 50 47 69 70 62 67 68 65 64 61 52 36 23 21 21 23 28 35 34 27 29 31 27 26 28 29 27 25 24 27 30 29 26 25 21 19 20 20 20 21 21 21 21 20 19 19 18 18 19 20 21 22 22 23 25 25 25 24 22 22 22 22 21 21 21 22 22 22 21 22 22 22 22 21 22 21 20 19 18 17 15 14 14 13 12 12 11 11 10
9 29 49 52 60 65 59 48 38 52 74 66 56 58 56 54 51 44 37 26 19 16 15 19 23 32 33 27 29 29 27 26 26 28 29 30 32 35 38 36 33 31 26 22 21 21 21 21 21 21 20 20 20 20 20 20 21 21 23 25 25 26 28 28 27 26 25 23 24 25 24 22 22 23 23 22 22 22 22 22 23 23 23 22 22 21 19 19 18 16 15 14 13 13 12 11 11
16 36 52 50 51 57 50 42 49 60 63 56 48 45 44 41 37 31 28 24 22 19 18 19 20 26 26 22 25 25 25 24 24 30 33 36 42 39 36 37 34 31 28 23 20 20 19 20 21 21 21 20 21 22 22 22 22 23 24 26 29 30 31 31 29 27 27 26 25 26 26 25 23 23 23 22 21 21 21 22 22 23 22 22 23 22 21 20 20 19 17 16 15 14 13 12 12
27 43 53 47 44 49 46 43 48 44 41 41 36 33 32 30 29 29 28 26 25 24 22 20 19 21 21 20 23 23 22 22 23 30 34 36 36 31 28 31 28 24 23 22 20 20 19 19 20 22 22 22 22 22 23 24 24 24 25 28 32 34 35 35 33 30 28 29 28 27 27 27 26 24 24 22 20 19 20 20 21 23 22 22 23 24 22 21 21 20 18 17 15 14 14 14 12
46 57 58 51 45 45 44 42 37 30 29 31 29 31 30 28 29 28 27 26 24 23 20 17 17 19 22 21 20 20 19 20 21 25 29 29 26 23 24 23 19 16 17 18 18 18 18 19 20 22 23 23 23 23 25 25 25 26 27 30 35 38 38 37 36 34 32 31 31 30 30 29 28 27 25 24 21 19 18 19 19 21 22 22 22 24 24 23 23 22 21 18 15 12 14 15 13
56 61 57 55 50 45 45 42 33 27 27 27 27 27 26 26 24 23 22 22 21 19 15 15 16 16 19 20 17 16 17 20 23 25 27 25 22 19 18 15 14 14 16 18 18 17 17 19 20 20 22 23 23 24 25 26 27 29 31 33 38 41 42 41 39 37 35 34 33 33 33 32 31 30 27 25 23 20 18 18 18 18 20 21 20 21 23 23 23 22 23 21 17 13 13 15 15
51 54 52 52 44 43 44 37 31 29 27 27 26 24 23 22 20 20 19 18 16 12 10 10 12 13 15 16 14 13 15 18 20 22 22 21 18 16 16 16 17 17 17 19 20 20 18 19 20 21 22 23 24 24 25 26 28 30 33 36 39 43 44 44 43 41 39 36 35 35 35 35 35 34 31 28 25 22 19 18 18 18 18 19 19 18 19 21 21 20 21 23 22 19 16 17 18
32 41 47 44 31 33 38 32 31 29 26 28 27 24 23 20 18 18 16 13 9 6 5 6 8 11 11 10 10 10 12 14 15 16 17 17 17 18 19 19 19 18 18 18 20 22 21 19 20 22 22 23 24 25 26 26 27 30 33 36 39 42 45 46 45 43 42 40 38 37 37 37 38 39 37 33 29 25 22 20 19 19 19 19 19 19 18 18 18 18 17 19 22 23 22 22 21
15 20 24 24 19 27 33 31 30 27 27 28 27 25 23 19 15 13 10 7 5 3 4 5 6 9 9 7 8 9 10 12 14 17 18 19 19 20 19 18 18 17 17 17 18 21 22 21 21 22 23 24 25 26 28 29 29 29 32 36 39 41 43 46 48 47 44 42 41 40 39 38 39 41 42 40 35 30 25 22 21 20 21 20 20 20 20 19 18 18 17 16 18 20 22 23 22
7 8 11 18 24 31 32 31 30 27 26 26 25 22 17 12 8 7 6 4 4 4 4 6 7 8 9 8 9 10 10 11 14 17 19 20 20 21 20 19 19 18 18 18 18 19 21 22 22 23 23 24 26 28 31 33 34 32 32 34 36 41 45 46 48 50 48 45 43 42 42 41 41 42 44 44 42 37 31 27 25 23 22 22 22 21 21 22 21 20 20 19 18 17 17 19 19
8 13 20 25 31 33 30 30 29 27 27 23 18 12 8 7 6 6 6 5 5 5 5 7 8 9 10 10 11 11 12 14 15 18 18 18 19 20 20 20 20 19 19 19 19 20 21 22 23 25 25 26 27 30 31 33 33 34 38 40 38 37 41 46 50 51 51 50 48 44 43 43 43 44 45 47 47 45 40 34 30 29 27 25 25 24 23 23 24 23 22 21 20 18 17 16 16
14 18 25 28 32 33 31 30 29 28 25 16 9 4 4 5 7 8 8 8 7 8 8 9 11 11 12 13 14 14 15 17 17 18 19 19 19 20 21 21 21 21 21 21 21 22 22 23 24 26 28 29 30 32 33 34 34 33 37 44 49 50 46 44 48 53 54 52 52 50 47 45 45 46 47 48 49 49 49 44 38 35 33 29 28 27 25 25 25 24 23 21 19 18 16 14 14
17 20 25 29 33 34 32 31 28 23 14 7 4 4 5 5 8 9 9 10 9 10 11 13 14 15 16 17 18 18 18 19 19 20 21 21 22 23 23 23 23 23 23 23 23 23 24 25 26 28 30 33 34 37 38 38 38 37 36 37 47 60 63 56 50 51 54 55 55 54 52 50 47 46 48 50 51 50 52 52 47 44 41 36 33 30 29 30 29 26 23 20 18 16 15 14 13
19 20 24 30 34 34 27 23 19 12 5 4 5 6 7 7 8 8 9 10 9 11 13 14 16 17 18 19 20 20 20 21 21 21 22 23 24 24 26 27 26 26 25 25 25 25 26 26 27 29 31 34 37 40 43 44 43 43 43 40 40 48 58 65 65 59 55 56 57 58 57 55 53 49 48 50 52 52 52 55 53 50 49 47 43 38 34 35 34 30 25 21 19 16 16 15 14
14 16 19 25 28 24 15 10 9 6 5 7 7 7 7 7 7 6 7 6 7 10 12 12 14 15 16 16 17 17 18 19 19 18 19 20 21 23 26 29 30 30 29 27 27 27 28 30 30 31 33 36 38 41 45 48 51 52 51 48 46 46 48 57 68 73 70 65 62 63 63 58 56 54 52 51 53 54 54 56 56 54 52 53 53 49 43 41 40 36 29 24 21 19 18 17 15
10 13 15 16 15 11 7 7 6 6 7 8 8 7 5 5 5 4 5 5 7 10 11 12 13 13 12 12 13 15 16 16 15 13 14 16 18 21 25 30 34 34 33 31 31 31 31 33 34 35 38 40 42 44 46 49 53 57 59 58 56 55 54 54 58 69 78 81 78 74 71 67 61 58 58 57 56 55 54 56 58 58 55 55 58 57 53 49 47 43 36 29 24 22 21 18 17
8 9 10 8 6 6 6 7 9 7 6 6 6 6 5 4 4 4 6 8 11 13 14 14 14 12 9 9 12 14 14 12 11 11 11 14 17 21 25 30 34 35 36 36 34 34 34 35 37 39 41 43 45 47 49 51 52 55 58 62 64 64 63 63 62 64 70 80 89 85 78 75 71 66 63 61 61 59 56 56 58 60 57 56 59 62 60 57 53 49 42 35 28 25 26 24 21
11 9 8 6 6 9 10 13 17 11 5 5 5 5 4 4 4 4 8 11 15 17 18 18 15 10 8 11 14 13 12 10 9 10 11 14 17 21 25 29 33 36 38 39 39 38 37 37 38 39 40 43 45 47 49 52 54 57 57 59 63 67 70 72 72 73 73 75 85 91 87 84 85 82 73 67 66 63 59 57 56 59 60 57 58 61 63 62 59 57 51 43 35 30 29 30 29
15 10 6 10 13 14 15 20 22 14 8 8 7 5 5 4 5 6 9 12 15 18 19 18 12 8 8 11 13 12 10 9 9 10 12 14 18 22 27 30 33 36 39 40 41 41 40 40 40 41 42 43 45 47 49 51 53 57 60 61 62 64 68 73 76 80 83 82 83 88 91 94 95 92 87 81 76 72 69 64 56 55 59 59 58 59 63 66 64 63 61 54 45 38 35 35 38
10 9 8 15 18 15 18 23 23 19 15 15 11 9 8 5 6 7 9 10 11 15 18 15 8 7 8 9 10 9 9 9 9 9 11 12 16 20 24 28 32 36 38 40 42 42 42 42 42 42 42 42 43 45 47 49 52 53 56 60 63 65 66 69 74 78 84 89 91 89 89 93 95 95 94 94 93 90 88 84 73 63 60 58 58 58 60 64 66 67 67 64 55 48 47 44 44
8 13 17 20 18 15 22 27 25 25 23 22 17 13 11 6 6 7 9 10 10 14 18 16 11 8 8 9 8 8 8 8 8 9 9 11 13 14 17 20 25 28 31 35 38 40 41 41 40 39 38 36 36 38 41 43 46 49 51 53 56 61 65 67 70 75 78 85 93 96 94 91 93 97 97 97 100 99 98 97 92 86 78 70 67 68 67 63 66 69 69 70 65 59 58 54 49
14 19 24 24 15 12 25 29 27 29 28 27 23 17 11 7 7 6 9 14 15 17 20 20 15 10 9 8 8 8 9 8 9 10 9 11 12 13 16 18 21 24 27 31 35 38 39 39 37 35 33 31 31 30 31 33 36 39 42 45 48 51 56 61 65 70 74 78 84 92 97 96 95 95 96 96 98 99 99 99 98 98 96 91 84 83 85 76 67 69 71 72 71 67 64 62 57
13 17 30 27 11 9 22 30 32 32 31 30 27 20 10 7 9 6 8 15 18 20 21 21 17 11 8 8 9 10 10 10 10 11 11 12 12 13 16 19 22 24 27 30 33 35 34 32 30 28 26 25 24 23 22 22 24 27 30 33 37 40 44 49 55 60 65 71 76 81 88 94 97 97 96 94 95 97 99 99 99 100 99 100 96 89 89 88 78 71 72 72 72 70 66 67 67
7 13 28 22 9 8 16 26 31 31 33 31 26 20 9 6 9 6 8 13 16 22 25 24 18 11 9 9 11 12 11 11 11 12 14 14 15 16 18 20 22 23 25 26 26 26 24 23 21 20 19 19 18 17 16 16 15 16 19 22 24 28 31 35 41 47 53 59 65 71 75 82 89 95 98 96 94 93 96 99 99 100 99 99 101 95 89 90 88 80 76 74 72 72 69 68 70
5 8 16 10 7 7 10 16 21 29 34 27 20 17 9 6 9 7 9 12 16 25 29 27 20 13 12 12 12 14 16 16 16 18 20 21 21 21 22 23 24 24 24 23 23 22 22 21 19 19 19 18 18 16 15 14 14 13 12 14 15 17 19 22 26 31 38 45 51 58 62 67 74 83 91 97 99 95 93 95 96 99 100 98 99 99 96 93 91 87 85 83 75 70 71 70 70
4 7 8 9 11 7 7 9 13 22 24 15 13 14 10 8 9 8 10 14 19 27 30 29 25 20 17 18 19 21 23 23 24 28 31 31 30 28 28 28 29 28 27 27 27 26 26 25 23 22 21 20 19 17 16 13 12 12 11 11 11 11 11 12 15 18 23 28 35 43 49 55 61 67 74 84 94 99 98 95 94 96 99 100 99 98 99 99 96 92 89 89 84 74 71 72 72
6 10 11 15 16 11 9 8 9 13 11 9 10 11 10 9 10 10 14 19 22 27 30 29 30 29 26 29 34 36 36 33 34 38 42 44 44 42 39 38 38 37 37 36 35 32 29 27 25 23 22 22 20 17 15 12 10 10 10 10 10 10 9 9 9 10 13 15 18 25 33 41 49 55 59 64 74 86 97 99 97 96 95 97 99 99 99 100 100 98 92 91 92 84 75 71 71
9 13 14 17 18 15 13 10 10 11 11 12 12 11 11 10 11 13 17 21 24 29 32 30 32 35 35 36 42 48 51 50 51 53 55 57 58 55 51 49 48 47 48 45 41 36 31 28 26 25 26 25 25 24 19 11 8 9 9 8 8 8 8 8 8 7 8 9 10 12 16 24 33 43 48 50 55 63 76 90 97 99 98 95 97 100 100 99 100 100 98 96 96 93 83 75 72
11 14 19 24 24 23 19 12 11 14 15 15 15 14 11 12 16 19 22 25 28 32 33 32 35 39 40 41 46 53 61 66 68 68 69 69 68 66 62 60 58 56 54 50 45 40 36 34 32 32 33 32 31 30 22 10 7 8 9 8 7 8 7 6 7 7 7 6 7 7 9 11 16 26 36 41 44 48 53 65 78 89 96 98 99 100 100 100 100 99 100 100 99 97 92 81 75
10 15 26 33 33 30 21 12 12 15 18 15 13 13 12 18 24 25 29 30 30 33 35 38 41 45 46 49 54 59 67 75 78 79 80 80 78 75 71 67 63 60 56 52 49 46 43 42 40 39 37 34 32 28 17 7 9 11 9 10 11 9 8 7 7 7 9 9 8 6 6 7 9 12 19 27 34 39 42 46 52 63 77 89 97 100 99 99 100 100 99 100 101 100 97 88 78
9 16 30 36 33 26 15 11 13 15 18 15 12 14 19 25 27 28 30 29 31 36 40 45 48 51 53 56 61 66 73 80 83 86 85 83 81 77 72 67 63 59 55 53 51 48 47 45 42 39 34 30 28 22 12 9 17 21 24 39 46 33 17 10 10 11 14 17 16 15 11 7 7 9 11 16 22 28 33 37 40 45 53 65 81 94 100 100 99 100 100 99 101 101 100 94 86
10 17 27 30 25 17 12 12 13 16 19 16 14 19 25 28 28 28 27 24 29 35 39 46 51 55 60 63 68 73 79 86 87 86 83 79 77 73 69 66 62 59 56 54 52 47 44 40 37 34 30 25 20 16 16 22 34 45 59 81 92 80 52 23 15 17 21 29 31 32 29 19 12 11 11 13 18 21 24 29 34 39 43 49 60 76 92 99 99 99 100 100 100 100 100 99 95
12 19 26 24 18 16 18 15 13 18 20 17 18 22 26 30 31 29 26 24 27 32 39 48 56 61 66 71 76 82 87 91 90 86 82 78 75 72 68 65 62 61 58 54 48 42 36 33 30 27 23 21 22 32 47 55 60 72 89 100 99 92 69 39 25 23 32 47 48 45 46 43 34 25 19 18 19 22 22 23 26 30 36 42 47 56 72 90 99 99 99 100 100 100 100 101 99
12 19 24 20 15 17 18 16 16 18 18 18 23 29 30 28 31 29 25 26 29 34 44 54 61 66 73 80 86 92 94 92 89 85 80 75 70 66 63 61 60 57 53 48 41 38 34 27 24 25 30 38 45 60 79 85 83 87 96 97 89 80 67 53 45 41 47 58 56 52 54 55 52 42 35 31 28 30 31 28 28 29 32 37 41 47 53 66 84 95 99 99 99 101 101 100 100
12 17 20 18 17 17 16 17 21 22 21 19 27 45 45 26 24 27 23 27 33 39 52 63 69 75 83 91 94 95 93 88 83 77 70 65 61 59 58 56 54 50 45 39 36 34 29 25 30 39 49 61 68 75 89 97 96 95 95 93 91 88 83 77 70 63 63 64 59 56 56 56 55 49 45 46 46 49 48 40 33 31 33 36 37 41 45 48 57 73 90 98 100 99 100 101 99
14 19 21 19 18 18 17 17 24 29 26 22 32 47 42 23 21 25 25 32 42 50 62 72 79 88 94 97 94 88 80 74 70 65 61 59 57 55 53 49 46 41 36 32 34 36 34 38 50 56 59 66 75 82 89 94 96 97 98 96 94 95 94 91 90 84 75 72 69 64 59 58 61 58 52 53 60 66 67 63 52 39 34 38 38 37 40 42 43 50 64 82 96 100 99 100 100
16 20 22 19 18 19 18 19 26 27 22 28 38 32 24 24 23 24 29 40 55 65 73 82 90 96 95 89 80 70 65 62 61 60 58 55 53 51 48 46 43 37 32 33 41 48 52 56 60 62 65 70 77 84 87 90 94 96 97 97 95 96 96 96 100 96 81 73 74 71 66 62 64 68 62 54 56 65 71 75 70 53 36 35 41 40 39 41 43 44 49 62 78 93 100 100 100
18 23 24 20 20 19 17 23 25 20 24 39 38 24 28 32 22 30 47 54 62 71 80 90 91 85 80 72 65 62 62 61 60 58 57 55 54 53 51 48 43 35 32 36 46 55 58 60 63 67 71 74 78 86 91 94 99 100 97 97 97 98 100 100 100 98 88 77 74 72 69 64 62 67 72 64 55 58 66 71 69 57 41 33 38 44 45 47 51 52 54 60 66 76 89 98 101
21 26 24 19 21 19 20 27 21 17 35 46 31 22 38 41 27 42 65 65 66 75 84 86 77 69 66 63 61 61 59 59 58 57 57 57 56 53 49 43 38 34 34 40 51 60 63 65 70 73 76 80 84 90 93 93 97 99 97 95 98 100 101 100 99 99 95 84 74 70 68 68 64 62 72 77 68 62 67 74 77 72 61 45 37 42 46 51 63 69 68 74 79 78 78 87 98
24 25 22 19 22 21 22 24 19 25 43 41 27 24 39 48 40 43 54 58 67 78 80 73 65 64 64 60 59 57 57 57 57 56 57 57 54 49 43 34 31 33 35 42 53 62 66 70 74 77 84 89 88 86 85 82 86 90 90 88 92 96 96 96 98 100 100 90 75 68 67 68 67 68 74 80 78 73 74 78 83 88 86 67 47 42 44 49 63 76 83 90 97 94 86 85 92
25 25 23 22 24 23 23 25 24 37 44 32 27 31 36 47 49 43 42 49 64 74 71 66 65 65 61 58 56 54 54 55 56 58 56 54 50 43 35 28 33 41 45 53 64 72 76 77 80 84 87 86 83 83 84 85 86 89 89 85 83 85 85 86 88 91 95 92 80 70 67 67 73 82 87 84 79 81 87 89 86 87 95 90 73 55 48 51 58 66 80 95 101 99 97 95 93
27 26 23 30 41 41 38 39 36 39 38 29 31 36 34 38 43 42 42 55 72 75 70 68 67 63 59 56 54 54 56 58 58 54 49 48 47 39 35 41 53 60 62 71 80 85 85 82 83 85 82 80 81 86 92 97 99 98 96 93 89 86 85 83 82 81 82 84 80 73 69 73 78 86 91 88 84 83 89 95 90 86 92 100 96 79 65 65 65 62 67 84 100 101 99 101 97
30 28 27 38 54 63 64 59 50 45 39 31 34 39 38 36 36 40 49 65 80 78 71 67 61 57 56 53 52 54 53 52 51 48 48 50 47 41 44 58 74 78 78 81 85 86 86 87 89 86 81 82 85 91 98 101 101 100 101 102 100 95 90 84 81 80 80 81 82 80 79 81 82 86 92 93 92 90 92 95 94 89 90 98 100 91 84 82 79 72 65 74 95 102 98 100 100
31 28 31 37 44 61 74 66 54 51 48 40 38 39 42 40 35 43 58 65 68 68 63 58 55 55 53 49 47 46 47 51 53 54 56 53 49 53 62 77 90 91 86 85 87 88 89 93 96 92 86 85 90 97 102 101 98 97 99 101 100 96 91 86 82 81 81 82 83 84 87 88 87 93 100 99 96 96 97 99 98 92 87 92 97 94 94 95 91 83 73 72 89 102 100 99 100
32 27 32 35 35 46 60 56 46 50 59 54 42 37 39 37 34 46 63 60 52 55 55 53 55 52 48 46 48 53 58 59 57 58 56 50 52 61 71 84 91 87 86 90 92 91 91 93 94 91 87 88 95 100 100 101 98 91 89 92 95 97 94 90 86 86 86 88 89 88 88 90 94 98 102 100 98 99 99 99 101 97 88 88 97 99 99 102 99 92 82 74 80 94 101 100 100
33 30 28 30 35 42 54 59 49 50 64 57 40 39 40 38 40 46 53 53 50 53 54 53 51 48 48 54 62 66 62 56 61 67 59 50 49 51 59 79 89 87 89 87 84 89 95 97 94 89 88 89 96 101 100 99 94 84 83 87 92 97 96 91 89 88 87 90 94 93 90 92 99 101 100 100 100 99 100 100 99 98 92 89 96 100 98 99 98 95 93 84 78 88 99 100 100
36 32 28 30 42 48 56 64 58 58 68 56 39 44 45 44 50 51 49 55 59 58 55 52 51 54 62 70 71 62 56 65 75 69 54 47 47 50 66 90 94 82 70 61 66 85 95 95 93 91 95 97 98 101 100 94 88 85 86 86 88 93 92 91 93 91 88 89 95 97 93 95 101 101 100 101 100 98 99 101 100 96 92 91 95 99 98 96 97 98 99 95 85 88 98 100 100
38 32 28 37 54 60 58 60 63 70 76 63 47 46 47 48 54 58 59 63 62 56 53 56 62 69 75 75 65 56 64 77 71 60 61 66 67 75 92 102 86 58 42 44 63 83 88 89 90 91 97 101 100 101 100 95 88 86 84 80 81 85 85 87 93 96 94 93 97 100 96 94 100 101 101 101 100 100 99 100 101 98 94 91 91 95 96 95 97 100 101 99 92 89 96 100 100
37 30 29 44 60 64 62 60 62 71 76 70 62 55 53 54 59 64 66 63 57 53 57 67 76 78 75 68 59 63 75 73 63 70 85 90 92 99 99 85 61 39 33 46 70 85 88 91 94 95 99 100 100 101 101 97 88 79 75 74 77 79 81 84 91 97 99 97 98 102 98 94 98 101 101 101 100 100 100 100 101 99 97 94 90 90 94 95 96 96 96 98 96 93 94 96 99
34 29 36 53 58 57 64 64 59 65 71 73 77 72 58 57 63 66 64 58 53 54 63 77 81 75 69 62 59 69 77 73 76 91 99 100 100 91 70 48 37 31 32 51 77 90 93 96 97 98 100 100 101 101 98 93 84 74 70 71 73 76 78 84 89 94 98 98 97 101 99 94 98 101 102 103 102 100 100 100 100 100 97 96 93 89 91 94 96 96 95 94 93 90 87 88 96
33 37 44 52 53 56 73 77 61 58 64 70 86 88 67 60 64 62 58 55 53 59 72 82 78 70 63 54 56 72 83 87 94 101 101 94 80 60 45 38 36 32 33 52 78 91 95 99 99 99 98 96 95 93 89 84 78 71 68 69 70 73 76 81 87 90 94 96 97 100 100 94 95 99 101 102 101 100 101 100 100 101 99 99 99 94 90 89 92 97 99 97 94 93 88 83 86
Wind_Speed
10 9 9 9 10 10 11 12 10 11 13 15 16 16 16 15 14 15 14 13 11 9 7 5 4 7 12 16 16 15 14 12 11 13 13 16 20 22 25 28 30 30 27 25 26 26 27 28 28 28 29 28 27 28 28 28 27 24 23 21 20 19 18 18 18 18 18 18 18 17 16 17 17 17 17 17 17 18 18 17 18 19 21 23 25 27 28 29 30 30 29 28 27 26 26 27 26
11 10 9 9 10 8 9 8 6 8 10 13 13 11 12 11 11 13 11 8 6 5 4 5 7 11 16 18 17 13 9 8 10 14 17 21 22 22 25 25 26 29 28 24 23 25 26 27 28 29 29 29 28 28 28 28 27 25 23 21 20 19 18 18 18 18 18 18 18 17 16 16 16 16 16 16 16 17 18 17 18 19 20 22 24 26 28 29 30 30 29 28 28 27 28 28 28
12 10 10 9 9 8 8 8 7 7 9 13 12 8 7 6 7 8 8 7 5 5 6 9 12 15 18 16 15 9 6 10 11 15 17 20 20 20 21 22 25 29 30 27 24 25 26 27 28 29 29 29 29 28 27 26 25 23 22 21 21 20 19 19 19 18 18 18 18 17 16 16 15 15 16 16 16 17 17 17 18 19 20 21 23 25 27 29 29 30 29 28 28 28 29 29 30
13 12 11 10 10 8 7 9 9 9 12 13 10 9 9 9 8 7 7 7 7 10 11 14 17 17 17 16 16 10 11 14 13 16 18 19 20 20 22 23 26 29 31 30 27 27 28 28 28 29 29 29 28 28 26 24 23 22 21 21 20 20 19 19 19 19 19 19 18 17 16 16 16 15 16 16 16 17 17 17 18 19 20 21 23 24 25 27 28 29 27 27 28 29 29 30 30
15 14 12 11 11 9 8 9 10 12 14 12 11 9 8 8 8 7 8 8 9 14 16 18 16 15 17 18 18 13 14 17 16 18 20 21 22 23 24 25 27 28 30 31 29 28 27 28 28 28 28 27 26 26 24 23 23 22 20 20 19 19 19 19 19 20 19 19 19 17 16 16 16 16 16 17 17 17 17 17 18 19 20 20 22 23 24 26 27 28 27 27 29 29 29 30 30
15 15 14 12 11 10 9 9 10 12 11 11 15 14 10 9 9 9 9 10 13 17 18 18 14 12 16 18 18 16 17 18 18 20 21 22 23 24 25 26 27 28 29 31 30 28 26 25 25 25 25 25 24 23 23 22 22 21 20 19 19 18 18 19 19 20 20 20 20 18 17 17 16 16 17 17 17 17 17 17 17 18 19 20 21 22 23 24 25 26 26 27 29 29 29 30 30
13 14 14 12 10 10 10 11 13 12 11 12 14 14 13 11 10 12 12 14 16 17 18 16 13 10 12 17 18 18 18 19 19 20 21 22 24 25 26 27 26 27 28 30 30 29 26 23 23 24 24 24 24 23 22 22 21 20 19 18 18 18 18 18 19 20 19 19 20 20 18 18 17 17 17 17 18 17 17 17 17 17 18 19 21 22 23 24 24 25 25 27 29 30 29 30 30
10 12 13 11 9 11 12 14 12 9 11 12 10 9 11 11 13 15 14 14 16 16 16 16 14 10 11 17 17 18 20 20 21 21 22 23 25 26 26 26 25 26 28 28 29 29 28 25 24 25 25 24 23 22 21 21 20 19 18 18 18 18 18 19 19 19 19 19 19 19 19 19 18 18 18 18 19 18 18 18 18 18 18 19 21 21 22 24 24 24 25 27 29 29 29 30 30
11 11 11 9 8 10 13 13 10 10 14 15 12 13 13 14 16 15 13 14 17 17 17 18 17 12 13 19 18 19 21 21 22 22 23 23 24 25 25 26 25 24 26 27 26 27 27 26 25 25 25 25 23 21 20 20 19 18 17 17 17 18 18 19 19 19 20 20 19 19 19 19 19 19 19 19 19 20 19 19 19 19 19 19 20 21 22 23 23 24 25 26 28 29 29 30 30
13 9 6 7 8 11 13 11 11 12 15 15 13 13 14 15 15 13 15 17 20 20 19 20 20 17 19 23 22 22 22 22 23 22 23 23 23 25 25 25 24 22 24 25 25 25 25 24 24 24 25 25 23 20 19 19 18 18 17 17 17 18 18 19 20 19 20 21 20 19 19 20 20 20 20 20 20 21 20 20 19 19 20 19 20 20 22 22 22 23 24 25 27 28 29 29 30
12 7 3 6 8 12 12 8 10 11 10 12 11 10 13 15 14 14 17 20 24 25 24 23 22 22 23 25 26 25 23 23 23 22 23 24 25 26 27 26 26 25 25 26 24 23 22 21 22 23 24 24 23 21 20 19 18 18 17 17 17 18 18 19 19 19 19 20 21 20 20 20 21 22 22 22 22 22 21 21 20 20 21 20 20 20 21 22 22 23 23 24 25 27 29 29 29
9 6 5 10 11 11 11 9 10 10 8 10 10 9 11 15 16 18 21 23 25 26 27 26 23 22 23 24 25 25 23 22 22 22 22 24 26 27 28 28 29 28 27 27 26 24 23 21 21 22 23 24 24 22 21 19 19 18 18 17 17 18 19 19 19 20 20 20 21 21 21 21 22 22 23 23 23 22 22 22 21 21 21 21 21 21 22 22 22 23 24 24 24 26 28 28 28
8 8 8 12 13 12 13 12 10 11 10 11 13 13 14 18 20 23 26 27 27 28 28 25 22 20 21 22 23 23 22 21 22 22 23 25 27 28 29 29 28 27 25 25 27 26 24 23 22 22 23 24 24 24 23 21 20 19 19 19 19 19 20 20 20 21 21 21 21 22 22 22 22 23 23 24 25 24 24 23 23 22 22 22 22 21 22 22 22 22 23 25 25 27 28 28 28
10 12 12 14 14 13 14 12 11 12 12 13 15 18 18 20 24 26 28 29 29 27 24 22 19 19 20 20 21 21 21 21 22 23 24 25 26 25 25 25 23 22 21 21 23 25 24 23 23 23 23 24 25 25 25 23 22 21 20 20 20 21 21 21 21 21 22 22 22 23 23 23 23 24 24 25 25 25 25 24 24 24 24 24 24 23 23 23 23 23 23 24 25 27 29 29 29
9 11 13 14 13 12 13 11 12 12 13 14 15 20 21 23 28 29 28 28 27 23 20 18 16 18 20 19 20 20 19 20 20 20 20 20 21 19 19 19 18 17 18 18 19 22 23 23 22 23 24 25 25 26 26 26 25 24 23 23 23 23 23 22 22 22 23 23 24 24 25 25 24 24 25 26 26 26 26 26 26 26 25 25 25 24 24 24 24 24 23 24 25 27 28 29 29
8 9 11 13 11 11 11 11 12 11 13 16 18 21 23 26 30 29 27 23 22 20 18 19 17 18 20 20 20 19 19 18 17 16 15 15 16 16 16 16 16 16 16 16 17 19 21 22 22 22 23 24 26 26 26 27 27 27 26 26 26 25 25 24 23 23 24 25 25 25 26 26 25 25 25 26 27 28 27 27 27 27 27 27 26 25 24 25 25 25 25 25 26 27 28 28 27
7 7 8 10 10 10 11 11 12 12 13 16 21 23 24 26 27 25 23 19 19 19 19 20 18 18 20 20 20 20 20 20 19 18 16 15 15 15 15 15 16 16 16 16 17 17 19 21 22 23 23 23 25 26 27 27 27 28 29 29 29 28 27 26 25 25 25 26 27 27 27 28 27 26 26 26 26 28 28 28 28 28 28 28 27 27 25 25 26 26 26 26 27 29 30 28 28
5 6 8 8 9 11 13 12 13 15 16 19 24 25 22 20 20 21 22 20 20 20 20 20 19 19 20 20 21 22 22 22 21 21 19 18 17 17 17 17 17 17 17 17 18 18 19 20 22 23 24 24 25 26 28 29 29 29 29 30 31 31 30 29 28 27 27 27 28 28 29 29 29 28 28 27 26 28 29 29 28 29 29 29 29 28 28 27 27 27 27 28 28 31 31 28 29
5 7 9 8 10 13 16 16 16 18 19 21 24 21 16 14 15 19 22 22 21 21 21 21 21 21 21 21 22 22 23 23 23 22 21 21 20 20 20 20 19 19 19 19 19 19 20 21 22 23 25 26 26 27 28 30 30 31 30 30 30 31 32 32 31 30 29 29 29 30 30 31 30 29 29 29 28 28 30 30 29 29 30 30 30 30 29 29 29 28 28 29 30 31 31 30 30
5 6 8 9 12 14 17 18 17 18 18 19 20 17 13 13 14 17 20 22 22 21 21 21 22 22 22 23 22 23 23 23 24 24 23 23 22 22 21 21 21 22 22 21 21 21 21 22 23 24 25 26 27 28 29 30 31 32 32 32 31 29 30 32 34 33 32 32 31 31 31 32 32 32 31 30 30 30 30 31 30 30 31 31 31 31 30 29 29 30 30 29 31 31 29 30 31
7 7 9 12 13 15 17 17 15 15 15 16 17 17 15 14 15 17 20 22 22 21 21 22 22 23 24 24 24 24 24 24 24 24 25 25 24 24 23 23 23 23 23 24 23 23 23 23 24 24 25 26 27 28 30 32 33 34 34 34 34 34 33 32 32 35 35 34 34 33 33 33 33 34 33 32 32 32 32 32 32 31 31 31 32 33 31 30 30 31 31 30 31 30 28 30 31
9 10 11 12 14 16 15 14 13 13 14 15 17 18 16 16 17 18 20 22 22 21 21 22 22 24 25 25 25 25 25 24 24 24 25 25 25 25 24 24 24 24 24 25 25 25 24 24 24 24 24 25 26 28 30 32 33 35 36 37 37 37 38 36 33 34 35 35 35 35 35 36 36 35 35 35 34 34 33 33 33 33 32 32 33 34 32 31 32 32 31 31 31 30 29 30 31
9 10 9 10 12 13 11 9 10 12 14 16 17 17 18 19 19 18 20 20 20 20 20 21 22 24 25 26 25 24 23 23 23 24 25 25 25 24 24 23 23 23 24 25 26 26 25 24 23 23 23 23 24 26 28 31 33 35 37 38 39 39 40 40 39 36 35 34 34 35 37 37 38 38 37 37 37 36 36 35 34 34 34 32 33 36 34 33 34 33 32 32 32 30 29 30 31
8 8 8 8 9 9 8 7 10 13 14 17 17 17 19 20 20 19 18 16 16 17 18 20 22 24 25 24 22 21 22 23 24 25 26 26 26 25 25 24 23 23 24 25 26 27 26 25 24 23 22 22 23 24 25 27 30 33 35 37 39 40 41 42 42 42 40 36 33 35 37 38 39 40 39 39 39 40 39 38 37 36 36 34 33 36 36 35 35 35 34 32 32 32 30 30 31
8 8 7 7 7 7 9 10 14 18 18 19 19 19 20 21 22 22 18 16 16 17 18 20 22 24 24 22 20 20 22 24 26 27 28 28 28 27 26 25 25 24 25 25 26 26 26 25 24 23 23 22 22 22 23 24 26 29 32 35 37 39 41 42 44 44 44 42 38 36 36 36 37 39 40 40 41 42 42 41 41 39 39 37 34 36 37 36 35 35 35 34 34 33 31 30 29
7 7 5 6 8 10 13 13 17 21 21 22 24 24 25 24 24 23 19 18 19 19 20 22 24 25 23 20 20 21 23 25 27 29 29 29 29 28 27 26 26 26 26 26 27 27 26 26 25 24 23 23 22 22 22 22 24 25 28 31 33 36 38 40 43 44 44 44 43 41 39 37 36 37 37 39 42 44 44 44 45 43 42 40 37 37 37 37 36 35 35 35 35 34 32 30 29
4 5 5 7 10 14 16 16 18 22 22 24 28 30 30 28 26 24 21 20 22 22 23 23 25 25 22 19 19 22 25 27 29 30 31 31 31 30 29 29 28 27 27 27 27 27 27 26 26 25 24 24 24 23 23 22 23 24 26 27 29 32 34 37 39 42 44 44 44 44 44 42 40 38 35 35 40 43 44 44 45 45 45 44 41 39 38 39 38 37 36 36 36 35 33 32 31
3 5 6 7 11 15 16 17 19 22 22 24 29 32 32 30 27 24 22 22 23 25 24 24 25 24 21 19 20 22 24 26 27 29 31 31 32 32 32 32 32 32 31 30 29 28 28 27 27 28 28 28 29 28 27 26 26 26 26 27 28 29 31 33 35 38 40 42 43 43 45 45 44 43 40 37 36 37 41 44 44 45 45 45 42 40 39 40 40 38 37 37 38 37 35 35 34
2 4 5 7 12 14 12 15 19 21 22 25 28 31 33 30 27 24 23 24 25 26 26 26 27 25 22 21 23 24 24 26 27 29 31 32 33 34 34 34 35 35 35 35 34 34 33 33 34 35 36 37 38 38 36 35 34 32 32 31 30 31 31 31 33 34 36 38 40 42 44 46 47 47 47 45 40 36 37 41 44 45 45 45 44 41 40 40 41 40 40 40 40 40 38 37 36
4 5 4 7 11 12 10 11 17 20 22 24 26 32 35 30 28 27 27 27 28 29 28 28 29 27 25 26 27 26 26 27 28 29 31 32 34 35 36 36 35 36 36 37 37 38 38 40 41 43 44 46 48 49 49 47 46 44 42 40 38 36 35 34 34 34 35 36 37 38 40 43 46 49 50 51 50 47 43 41 42 45 46 47 48 46 44 42 42 42 43 43 43 43 41 39 38
9 7 3 8 13 13 11 9 13 18 20 23 26 34 37 32 30 30 28 28 30 31 30 30 30 27 29 30 30 30 29 28 29 30 30 31 34 35 36 36 37 37 38 40 41 42 44 46 48 50 52 54 57 58 60 61 60 58 55 52 49 45 43 41 39 37 37 36 36 36 36 38 42 46 50 52 54 56 54 51 46 44 44 46 48 49 49 47 45 44 45 46 46 47 45 42 40
12 9 5 10 15 16 14 13 15 16 18 23 27 33 36 33 31 29 26 28 29 32 32 32 31 28 29 31 30 31 31 30 31 31 31 32 33 35 37 38 38 39 40 42 43 45 46 48 50 53 56 59 63 65 67 68 69 69 67 63 60 57 54 51 48 45 42 41 40 39 37 37 38 41 46 50 54 56 58 59 56 51 46 44 45 46 49 51 49 49 48 49 49 50 49 46 43
13 11 10 12 16 21 21 20 20 19 23 27 27 31 36 32 29 29 27 28 29 32 32 33 33 30 29 30 29 30 31 32 33 32 31 32 33 36 38 39 40 40 41 42 44 45 46 49 51 54 58 62 66 69 70 72 73 72 70 69 67 65 63 60 58 54 51 48 46 44 41 40 39 39 40 43 49 54 56 59 60 59 55 51 48 46 47 48 50 52 52 52 53 53 52 50 47
20 16 16 15 17 23 27 27 25 24 27 26 25 29 32 27 26 30 29 28 29 30 31 33 34 32 29 29 28 29 30 32 32 31 30 31 32 34 36 38 39 40 41 42 43 46 49 52 56 59 63 66 69 71 73 75 74 71 67 65 65 65 65 63 62 61 59 57 54 51 48 45 44 42 40 39 42 47 51 54 57 60 62 61 58 53 50 47 48 51 53 54 54 55 55 54 51
23 19 19 18 18 20 26 32 29 26 27 26 28 31 28 23 25 31 28 26 27 28 30 33 34 33 30 29 29 29 30 30 29 29 29 30 31 33 35 37 38 39 40 42 44 48 52 55 59 62 64 67 70 73 77 78 73 66 62 59 59 59 60 60 60 59 58 58 59 59 56 53 50 48 45 43 41 42 45 48 52 55 59 62 63 61 57 53 48 47 49 52 53 56 57 56 54
19 17 16 17 20 19 24 32 29 25 29 30 30 32 29 24 25 29 28 24 23 25 29 33 34 34 33 32 31 30 28 26 25 26 28 30 32 33 35 36 37 39 40 43 47 50 54 57 60 62 64 68 71 75 80 78 66 58 54 52 51 52 53 54 55 54 52 51 54 57 58 58 56 54 51 49 47 45 44 45 47 49 51 55 59 60 60 59 54 49 49 49 51 54 57 59 57
17 16 14 15 19 22 27 33 29 24 30 34 29 29 30 25 24 25 25 23 22 25 30 32 33 32 33 32 30 29 26 24 24 26 28 31 33 35 36 37 39 41 43 46 49 52 55 57 60 64 68 70 74 80 79 67 54 48 46 44 45 46 47 48 48 48 46 45 46 49 52 54 56 56 55 54 53 50 48 47 46 46 47 49 52 55 57 57 56 54 53 52 52 54 57 60 60
18 15 14 14 18 26 33 33 28 25 29 32 27 27 29 25 21 19 18 20 21 25 29 30 30 31 31 30 28 26 24 24 26 27 30 32 34 36 38 40 43 45 48 51 53 56 57 59 63 67 68 70 76 79 67 50 43 41 38 37 39 42 43 43 41 40 40 41 42 42 44 46 48 51 53 53 55 55 53 51 50 48 47 47 49 51 52 55 55 53 53 53 54 58 61 62 63
20 14 13 15 19 31 39 35 29 27 30 30 26 29 31 23 16 15 18 21 23 25 28 29 31 30 28 26 24 24 25 25 27 29 30 33 36 39 42 45 48 51 53 55 57 60 62 64 65 64 65 68 71 67 52 41 38 36 31 31 35 40 42 40 37 35 35 38 39 40 41 42 40 43 47 48 50 54 55 55 54 52 50 49 49 50 50 52 56 55 52 52 52 55 60 63 66
21 15 13 18 25 33 39 38 33 30 28 24 26 32 31 21 15 15 17 21 25 26 28 30 30 27 24 23 23 23 24 25 28 31 33 37 41 44 48 51 53 54 56 59 61 63 64 63 61 61 63 63 57 50 43 38 36 32 28 30 35 39 42 41 39 36 35 36 37 37 39 41 38 36 39 42 43 47 52 55 56 55 54 53 52 52 52 51 53 56 55 53 51 52 54 58 65
22 17 18 24 32 34 33 34 34 32 22 15 23 29 28 24 16 13 18 23 27 27 26 27 25 23 21 21 20 20 22 26 29 34 37 42 46 49 52 54 56 58 61 63 63 62 61 59 58 57 55 50 44 41 38 34 33 30 28 32 36 39 41 42 42 39 35 35 36 36 36 38 39 35 33 36 38 41 47 51 53 55 55 54 53 53 54 53 51 54 55 54 53 54 53 54 59
25 21 22 28 34 35 32 30 33 35 22 17 24 19 22 28 14 11 28 31 26 24 23 23 21 20 18 17 18 20 24 29 33 37 42 46 50 53 55 57 60 63 65 64 60 58 58 57 53 48 44 41 41 41 37 32 31 31 30 32 35 38 41 42 43 41 37 35 36 37 36 37 38 37 32 31 33 37 42 45 47 49 50 51 52 53 54 54 53 52 53 53 52 54 54 53 54
26 22 24 30 34 34 31 28 30 30 23 24 21 10 17 30 18 20 37 30 20 20 19 18 16 14 13 16 21 26 30 34 38 43 47 51 55 57 60 63 64 65 64 60 56 54 54 51 47 45 43 42 41 41 39 35 32 33 33 34 35 37 40 42 43 43 41 37 37 38 38 37 37 38 34 30 31 34 38 41 43 45 46 47 48 50 52 53 52 52 52 53 50 51 54 55 55
26 23 25 34 36 32 28 25 24 24 25 23 13 13 19 27 30 35 36 22 15 15 14 13 12 11 15 21 26 30 34 39 44 49 53 56 58 60 62 62 62 62 59 54 51 49 48 47 46 47 46 46 44 42 40 38 36 36 37 36 36 37 40 43 43 45 45 42 40 39 39 38 37 37 37 33 31 33 37 40 43 44 44 46 47 48 50 50 51 50 50 52 51 49 52 57 58
28 22 26 37 35 29 22 16 19 23 22 15 11 21 17 23 39 35 19 12 12 12 12 10 11 15 21 26 31 35 40 45 50 54 56 56 57 58 59 60 60 59 54 49 49 48 48 47 47 48 49 50 47 43 42 41 39 38 38 38 38 39 41 42 44 45 47 46 43 40 40 40 38 37 37 36 32 31 33 37 40 43 43 44 47 48 49 49 49 49 48 48 50 50 49 53 60
28 22 32 40 32 27 13 6 20 23 13 5 12 26 14 18 35 21 6 7 8 9 10 9 14 20 25 32 38 43 48 52 55 56 56 57 58 59 59 61 59 56 51 48 48 47 47 47 47 49 49 48 45 42 42 42 41 40 40 39 40 42 41 41 43 45 47 48 45 41 40 40 40 37 35 35 34 31 30 31 34 38 40 43 46 48 50 50 50 49 48 47 47 49 48 49 55
26 24 39 43 38 31 6 4 20 14 4 0 11 28 20 12 16 11 13 18 10 8 10 12 20 25 32 39 45 50 54 56 57 57 59 60 60 61 64 64 58 54 52 49 48 48 48 49 48 47 45 42 41 42 44 44 43 42 41 41 41 42 43 42 44 46 48 49 48 44 42 42 41 38 36 35 33 31 28 29 31 33 34 38 42 46 50 51 51 51 49 48 46 47 48 47 50
24 26 40 41 39 32 7 8 18 5 3 10 21 36 27 10 7 12 25 25 14 12 12 17 26 31 39 45 49 55 57 58 59 59 61 63 65 68 69 64 56 54 53 51 50 51 50 49 47 44 41 41 43 45 46 46 43 41 41 42 43 43 45 46 47 48 48 50 50 49 47 45 39 33 35 36 32 30 27 27 31 32 30 31 35 41 47 50 52 53 52 50 48 47 47 48 49
23 28 40 30 21 19 8 8 11 4 11 22 31 35 23 13 11 18 28 23 11 11 12 22 32 37 44 49 54 58 58 60 61 63 66 68 69 68 63 56 53 53 52 51 51 50 50 48 46 45 44 45 46 46 44 40 37 37 38 39 41 43 45 47 49 50 51 52 52 52 49 45 37 32 34 34 30 29 29 27 29 32 31 31 31 34 40 43 46 50 53 52 50 49 48 49 50
21 27 34 19 6 7 5 5 4 7 19 31 35 26 16 14 16 24 26 13 5 10 17 28 38 44 50 54 59 61 62 64 64 67 68 66 61 56 53 52 51 51 51 51 51 49 49 48 48 49 48 49 48 43 37 34 34 34 34 35 37 38 40 42 44 46 48 49 49 49 46 42 38 35 33 32 27 27 28 28 28 30 33 33 31 30 32 35 38 42 49 53 52 50 48 48 49
16 24 27 17 11 5 4 5 3 7 20 33 30 15 8 12 20 28 21 9 13 21 29 39 46 51 55 60 66 67 66 65 64 65 62 56 52 50 51 50 49 49 50 50 50 48 48 49 51 53 53 52 45 36 33 34 36 35 34 34 34 35 37 39 41 41 41 41 40 40 40 39 38 35 32 30 27 26 27 28 28 29 31 32 31 29 29 31 33 36 41 48 52 51 48 48 48
14 23 24 22 22 14 12 13 15 17 17 19 19 12 12 20 28 27 17 15 27 35 41 48 52 57 62 67 68 63 60 62 62 60 55 51 51 50 49 48 47 49 49 49 50 50 51 52 54 56 55 49 38 32 33 36 37 37 35 34 34 37 41 43 43 42 40 40 38 38 37 37 35 33 31 29 28 27 27 29 30 29 30 30 30 30 30 29 28 30 35 41 48 51 50 48 47
16 22 27 30 25 17 15 16 19 18 10 10 15 16 21 28 26 19 19 26 36 41 47 53 56 63 65 63 59 57 60 62 57 53 51 51 51 49 48 47 47 48 48 50 51 51 53 55 57 56 51 43 33 31 36 38 39 39 36 37 39 41 45 46 44 41 39 39 39 38 36 34 32 30 28 28 27 28 28 29 31 31 30 30 30 30 30 28 27 28 32 36 41 48 51 49 47
17 21 31 30 17 11 10 9 10 9 6 10 17 20 24 22 15 17 27 34 38 44 53 58 61 62 58 54 56 60 61 57 52 52 51 51 51 50 48 47 48 49 52 54 54 54 55 55 55 50 43 39 33 33 38 41 41 41 41 41 40 40 42 42 41 39 37 37 37 37 36 34 32 29 28 28 28 28 28 29 30 31 30 30 31 31 31 31 30 30 30 33 37 42 48 50 48
18 23 32 24 10 11 11 8 8 8 6 8 17 25 21 13 14 23 30 35 43 53 58 57 57 54 52 56 61 62 57 53 52 52 49 50 51 50 48 48 51 53 54 55 55 55 54 52 51 45 39 36 34 35 41 43 42 44 45 42 37 37 38 37 37 37 36 36 36 35 35 34 33 31 30 29 29 28 29 29 30 31 31 31 31 32 33 34 34 33 31 32 34 37 43 48 48
20 28 31 18 9 13 15 13 12 11 9 7 14 18 10 10 21 25 27 38 51 58 57 52 50 51 55 61 62 58 54 53 52 49 49 51 51 49 50 53 56 56 55 55 55 54 53 51 48 42 36 34 35 39 44 46 47 48 45 40 37 37 36 34 34 35 35 35 34 33 34 34 34 33 31 29 28 28 28 28 29 29 30 31 32 33 33 34 36 35 34 34 33 34 38 44 46
24 31 28 17 14 17 16 17 18 16 11 6 7 10 13 21 24 21 27 44 56 59 54 48 49 54 59 61 59 56 54 52 49 47 48 49 51 55 57 58 57 55 54 54 53 53 50 44 39 36 33 33 38 43 47 50 53 52 46 40 38 37 34 32 32 33 33 33 31 31 33 34 34 33 31 29 28 27 27 27 27 27 28 30 32 33 34 35 36 35 34 33 33 33 35 38 42
22 25 21 19 21 19 12 11 18 21 18 14 9 11 20 23 16 20 36 52 58 56 50 48 52 58 62 61 58 55 53 50 48 46 48 52 58 60 59 58 57 56 56 56 55 53 47 39 35 35 35 37 43 47 51 54 55 52 46 40 38 37 35 32 32 32 31 30 30 30 31 34 34 33 31 31 28 26 27 27 28 27 27 28 30 32 33 35 36 35 32 31 31 32 33 34 36
Wind_Direction
218 225 234 238 240 243 254 259 256 254 255 259 267 274 278 282 284 291 291 285 281 271 281 295 286 299 309 311 306 306 307 300 294 285 277 268 270 273 272 276 278 280 282 284 287 289 289 289 290 292 295 296 296 296 297 298 298 298 297 295 290 284 278 275 274 275 276 275 275 275 275 275 274 273 270 267 263 259 256 253 249 244 238 235 235 236 238 239 241 242 242 243 242 238 236 236 234
212 215 220 230 238 242 252 258 240 242 256 264 276 291 293 290 285 286 277 269 277 272 267 265 279 295 302 304 298 301 297 278 270 268 266 266 267 270 274 279 284 288 290 290 289 288 288 289 291 293 295 296 296 296 296 296 296 296 295 293 289 283 279 276 276 276 278 277 275 276 275 274 272 271 270 268 265 261 258 255 251 247 242 237 234 234 236 238 239 240 240 240 240 236 234 234 233
208 209 214 225 233 233 244 252 237 240 252 263 282 296 292 289 283 281 263 257 261 259 255 267 284 294 299 296 289 291 261 251 255 258 257 261 266 269 275 281 287 291 293 294 292 290 290 291 293 294 295 295 296 295 295 294 293 293 292 290 288 283 279 279 279 280 279 278 276 276 276 273 271 269 268 267 265 262 259 255 251 248 245 240 236 234 234 235 237 238 238 237 237 234 232 232 232
206 208 211 220 228 223 232 251 252 256 256 265 283 283 284 284 279 278 264 267 270 271 276 282 291 297 296 288 283 267 240 244 233 242 251 258 265 269 275 280 285 289 291 292 292 291 292 294 294 294 293 293 293 293 293 292 291 289 288 286 285 283 281 280 281 282 281 279 277 276 275 272 270 268 266 265 263 261 258 254 251 248 245 242 239 237 235 234 235 236 234 233 235 234 232 231 231
205 206 209 216 229 222 222 249 261 264 265 278 287 274 276 274 268 265 258 275 285 284 285 287 293 297 291 287 284 265 253 257 242 248 257 261 268 271 276 280 283 285 287 289 289 289 291 293 293 292 291 290 290 289 290 289 288 286 283 282 281 280 280 281 282 282 281 280 278 277 275 271 269 268 266 265 262 259 257 254 251 248 245 242 241 241 238 237 236 235 231 230 233 232 232 232 232
206 207 208 212 227 227 227 243 252 262 279 292 281 266 256 259 261 254 257 276 283 283 283 287 294 297 293 291 286 274 266 264 258 260 262 267 271 273 277 281 283 285 287 289 289 289 288 289 290 290 289 288 287 286 286 285 284 283 281 279 277 276 277 279 280 280 280 280 279 277 275 272 268 266 265 264 262 259 256 253 251 248 245 242 242 243 240 238 237 236 231 230 233 232 232 232 232
207 211 211 210 226 235 236 248 253 266 286 288 276 263 250 251 253 251 263 276 282 283 283 288 294 295 292 289 284 279 275 272 268 268 271 276 278 279 282 284 287 289 289 290 291 291 290 288 287 287 285 284 284 283 283 281 279 278 277 275 275 274 274 275 275 276 276 277 278 277 275 273 268 264 262 260 258 256 254 253 249 247 245 242 242 242 241 240 238 238 232 230 234 233 231 231 231
194 207 211 207 223 239 243 250 259 268 272 276 272 251 240 245 254 261 270 279 285 284 285 287 287 288 285 282 279 276 279 278 276 276 280 283 284 285 285 288 291 292 291 290 291 292 292 292 288 285 283 281 281 280 279 277 276 274 272 271 272 273 273 273 272 273 272 271 273 275 274 272 268 264 259 256 254 252 249 248 246 242 240 240 241 241 241 243 240 240 236 232 235 235 232 231 231
177 194 203 203 217 235 241 246 264 279 263 257 252 243 244 254 261 269 278 283 286 287 289 288 288 292 289 285 279 274 278 280 281 280 281 283 284 285 286 290 292 293 292 290 290 290 292 295 292 287 284 282 280 278 276 274 272 270 269 268 269 271 274 274 273 272 272 269 267 269 271 270 269 265 260 257 253 250 246 244 243 240 237 235 237 238 239 243 242 241 239 236 237 237 234 232 232
171 177 189 208 222 230 236 250 267 270 254 240 238 242 248 259 268 276 282 284 287 291 294 294 297 297 291 288 283 279 281 285 286 283 283 285 283 286 289 290 291 291 291 290 289 289 292 294 293 290 285 283 281 277 273 272 269 266 264 264 267 270 271 273 273 272 272 272 270 267 267 267 267 265 262 259 254 249 245 241 240 240 240 235 233 235 237 240 241 241 240 239 239 240 237 234 234
157 160 198 228 236 231 233 262 263 245 234 230 233 248 256 265 275 281 283 286 288 292 296 300 301 296 291 290 288 288 291 291 291 285 285 287 286 289 290 290 289 289 290 288 286 286 288 290 291 289 285 283 281 277 271 268 265 262 260 261 264 267 269 270 270 269 268 270 271 270 267 266 265 265 263 261 257 252 247 242 239 238 240 238 234 233 235 238 238 239 240 239 239 241 241 237 234
149 157 228 250 250 241 246 277 273 247 233 228 234 251 268 275 279 283 284 285 288 293 300 302 299 294 290 290 290 293 295 294 292 287 285 287 288 289 289 289 290 291 291 289 288 288 287 287 288 286 283 282 280 276 270 265 261 258 257 257 260 264 266 267 268 268 266 264 265 267 267 266 264 264 263 261 259 254 249 244 240 237 237 238 235 232 233 237 237 236 237 236 235 238 241 238 233
172 180 219 245 242 242 257 275 274 255 248 249 258 265 274 283 287 289 288 290 294 298 303 301 298 294 289 289 291 294 295 292 288 286 284 284 285 286 288 289 291 292 292 290 291 293 293 291 288 285 282 281 280 276 270 265 259 255 253 253 255 259 262 264 265 267 267 265 264 263 263 262 262 262 261 259 258 254 249 244 240 237 236 237 236 234 233 236 238 236 235 234 233 235 238 238 233
196 197 216 233 232 239 254 265 259 253 262 271 279 281 284 290 292 292 291 295 297 299 300 298 298 295 291 290 291 294 293 288 284 284 282 282 284 287 289 290 292 293 292 291 290 292 296 295 291 287 283 280 278 275 271 266 260 254 251 250 251 253 256 259 261 263 266 267 267 266 265 263 263 264 263 260 257 253 249 245 241 238 236 236 237 236 235 236 238 239 238 235 234 235 238 239 235
210 210 223 235 236 238 248 259 255 253 266 275 284 287 292 295 293 292 294 297 297 300 302 300 301 295 294 293 292 294 290 286 285 283 284 284 287 289 290 291 294 296 297 296 292 290 293 297 294 288 284 281 278 274 271 267 262 256 251 249 249 251 253 255 258 259 262 264 265 266 266 265 265 267 269 267 262 257 251 247 244 241 238 237 237 236 236 237 238 240 241 241 238 237 238 240 239
222 227 234 242 244 242 250 259 254 255 265 274 280 283 291 294 293 294 294 296 297 303 306 305 305 297 297 299 299 299 297 296 295 292 291 288 289 289 288 289 292 296 300 300 299 295 293 296 295 290 285 282 280 277 271 266 262 258 254 250 248 249 250 252 255 257 259 261 262 264 265 265 264 266 269 271 270 265 258 251 248 245 243 241 240 238 238 238 240 241 241 243 243 243 242 240 243
230 240 238 241 253 263 269 265 254 257 266 275 281 284 291 293 292 294 293 296 301 306 309 307 307 303 302 303 305 306 307 308 306 304 301 296 293 290 288 287 288 292 295 298 298 297 295 294 292 291 287 281 279 276 273 268 263 259 256 253 250 248 248 249 251 253 256 259 260 261 263 264 264 263 264 267 270 270 265 258 254 250 246 245 244 242 242 242 242 243 243 244 245 246 246 243 245
246 238 226 240 269 277 276 270 262 266 275 280 283 286 290 291 293 294 295 302 307 309 310 309 309 307 306 307 308 309 310 310 309 307 305 303 301 297 296 293 292 292 292 294 294 294 294 292 289 287 285 282 277 274 271 271 269 264 259 256 253 251 249 247 247 248 251 254 258 259 261 262 262 263 263 265 267 269 269 264 260 257 253 249 247 245 244 244 245 246 247 247 247 247 248 245 244
264 234 230 257 273 272 273 271 271 276 284 286 284 286 290 293 296 296 299 305 307 306 309 311 310 310 309 309 309 309 310 310 309 308 307 306 304 301 300 298 297 296 294 293 293 293 293 292 289 284 281 279 277 274 270 269 270 267 265 262 257 254 251 248 246 245 246 249 252 255 258 260 260 260 261 262 263 265 268 267 264 262 260 257 254 251 248 248 248 248 249 249 249 249 249 248 244
263 232 236 264 268 269 274 275 278 284 288 288 287 292 300 305 301 299 302 304 305 306 308 309 309 310 310 309 308 309 310 310 311 310 309 308 307 304 301 299 297 296 296 294 293 293 293 292 289 284 279 275 272 271 270 269 268 267 266 265 262 257 252 250 248 245 244 245 247 250 253 256 257 257 257 258 260 261 264 266 264 263 263 261 259 257 255 254 255 254 252 252 251 251 252 252 248
269 248 246 259 266 272 278 284 289 290 292 293 296 302 311 315 312 309 308 306 306 308 308 309 310 311 311 311 312 312 313 313 313 313 313 312 310 308 304 301 297 294 293 291 291 290 290 290 289 286 281 276 271 267 266 267 267 267 265 264 262 260 256 252 249 248 246 245 245 247 249 251 253 254 254 254 256 258 259 263 263 262 263 264 263 260 257 257 258 258 257 256 254 254 254 254 252
277 264 261 262 266 273 282 295 297 296 300 300 302 309 320 325 322 319 315 311 312 313 313 315 316 316 316 316 316 316 317 317 317 317 317 315 313 311 308 304 300 296 292 290 288 287 288 287 286 285 282 278 274 269 265 264 264 265 265 264 262 259 258 256 251 248 248 247 246 247 248 249 249 251 252 252 253 254 256 259 260 260 260 262 265 263 260 259 258 257 257 257 257 256 256 255 255
272 268 271 269 270 277 290 304 306 309 310 306 306 313 324 329 326 323 318 316 318 318 317 318 319 319 319 319 319 319 319 321 321 321 320 317 316 314 310 306 302 296 292 288 286 286 286 285 284 282 280 278 276 273 269 265 263 262 263 263 263 261 259 257 254 250 248 248 247 248 249 250 250 249 250 251 251 252 252 254 257 258 258 258 263 265 263 260 259 258 257 256 257 258 257 256 257
266 276 283 281 283 285 294 315 326 327 324 318 314 313 319 326 326 324 324 322 320 317 315 315 317 318 319 319 319 320 322 324 324 323 323 321 320 318 316 311 305 299 293 289 287 286 285 284 283 280 278 276 275 274 273 270 267 265 263 262 262 262 260 259 257 254 251 249 247 248 250 251 253 251 250 251 252 252 251 251 253 255 255 254 257 262 262 260 259 259 258 257 257 257 257 256 257
268 279 286 295 305 304 307 321 326 328 333 331 325 320 321 328 327 326 329 327 321 317 315 315 316 319 319 318 319 321 323 325 325 324 323 323 322 320 319 315 310 304 298 293 289 286 285 283 282 280 279 277 275 274 273 273 271 269 267 265 262 261 260 259 258 256 254 251 248 247 248 248 252 254 253 253 254 254 253 251 251 252 253 252 251 255 259 259 258 258 259 258 256 256 256 256 257
281 282 287 312 329 332 327 322 322 328 336 334 330 327 327 333 330 327 331 329 323 320 317 317 319 321 320 319 321 323 324 325 325 325 324 323 322 320 318 314 310 305 300 295 291 287 285 283 282 281 281 281 280 278 276 274 273 272 270 268 266 264 261 259 258 257 255 253 250 248 247 245 246 251 255 258 257 255 254 253 251 251 251 251 249 250 256 258 257 256 257 257 256 255 254 255 256
295 309 312 309 327 341 335 330 330 332 336 333 331 328 328 332 330 327 330 330 326 322 319 318 321 321 319 319 323 325 325 326 326 325 324 322 320 318 316 313 310 306 301 296 292 288 285 283 282 282 282 283 285 284 283 282 279 276 274 271 269 267 265 262 260 258 256 254 252 249 248 246 244 244 247 255 258 255 254 253 252 253 252 251 250 249 252 256 257 255 255 256 256 255 254 253 253
305 329 339 322 333 346 336 331 330 328 331 331 328 324 321 326 328 327 327 325 323 319 316 314 318 319 314 316 322 323 324 324 325 325 323 320 318 316 314 313 311 308 306 302 297 292 288 285 284 283 284 285 286 287 287 285 283 280 278 276 273 269 267 264 262 260 258 255 253 251 248 247 245 243 240 243 252 254 252 252 252 253 253 252 251 249 249 252 254 254 253 253 253 253 252 251 251
341 328 350 336 340 352 341 327 322 320 325 325 323 316 314 322 324 325 324 320 319 317 314 314 316 316 312 313 315 316 319 321 323 324 322 319 316 314 312 311 310 308 307 305 302 299 295 292 291 290 289 289 289 289 289 286 284 281 278 277 275 273 270 267 264 262 260 258 255 253 250 247 245 243 241 241 244 247 249 250 249 249 250 252 251 249 247 247 248 251 251 250 250 250 250 250 251
359 332 320 319 330 352 350 321 309 312 316 318 319 313 314 323 322 323 323 317 316 314 313 314 315 315 312 309 309 309 312 314 316 318 317 314 312 310 307 306 305 305 304 303 302 300 299 298 297 297 296 295 293 293 292 291 288 283 279 275 273 272 271 269 267 264 261 259 258 256 254 251 247 244 242 242 242 244 245 246 246 245 246 250 251 249 247 245 244 247 250 250 249 248 248 249 250
349 340 303 320 332 348 355 334 310 309 309 312 317 312 313 322 319 318 318 313 311 309 309 312 312 314 312 309 306 305 305 305 306 307 307 307 305 303 301 300 300 300 300 300 300 299 299 300 301 301 301 301 300 299 298 297 295 291 285 278 274 270 269 268 267 266 265 262 259 257 256 254 251 247 244 242 242 243 245 246 246 245 244 247 249 249 248 247 243 243 247 249 249 248 247 246 247
350 350 328 330 338 345 355 359 339 318 305 309 315 309 308 315 314 312 309 306 306 303 304 307 307 308 308 305 303 302 299 297 297 297 299 301 301 300 299 298 298 298 298 298 298 297 297 298 299 300 301 301 301 301 302 302 302 299 294 288 281 275 271 268 266 264 263 263 262 259 256 255 254 252 249 245 242 242 244 246 247 247 246 245 247 248 249 248 246 244 244 246 247 248 248 246 244
355 354 339 335 342 348 351 357 352 330 310 309 310 303 304 313 313 309 305 303 302 300 301 303 303 302 300 296 294 294 293 292 292 293 295 296 297 298 297 296 296 296 296 295 295 294 294 295 296 296 297 298 299 300 303 305 305 303 300 296 292 286 280 275 271 267 263 262 261 260 259 257 254 252 252 250 247 243 243 244 246 247 247 246 247 248 248 248 247 247 246 245 245 245 246 245 243
349 346 337 333 339 347 346 348 349 331 313 308 307 302 305 314 310 304 307 306 303 302 302 301 299 295 291 287 283 283 284 285 287 289 291 293 294 294 294 294 294 294 295 295 295 294 295 295 295 295 296 296 297 298 301 304 305 303 301 299 297 293 289 284 279 275 270 266 263 260 259 258 256 253 251 251 250 247 244 243 243 245 246 246 246 248 249 249 248 248 246 244 243 243 244 244 243
342 336 330 325 326 336 339 341 340 327 312 308 309 307 310 317 307 305 310 311 306 304 302 299 295 289 285 282 278 276 277 280 282 285 288 289 290 291 292 293 294 296 299 300 300 299 298 297 295 295 295 294 295 298 302 305 304 301 300 298 296 294 292 289 286 282 277 272 269 264 260 258 257 255 253 251 250 250 248 246 243 243 244 245 247 248 250 249 249 247 244 244 245 244 243 243 243
337 329 320 314 314 318 326 333 334 325 315 310 310 310 315 320 313 311 314 312 306 302 297 292 288 285 282 280 276 274 274 278 282 285 287 289 291 293 294 297 297 298 303 305 304 302 300 298 297 295 294 296 298 302 305 306 303 300 298 294 292 290 289 288 288 286 283 277 272 269 265 261 258 255 253 252 250 250 249 248 247 244 243 244 246 247 249 250 250 248 247 247 248 246 244 242 241
338 326 311 305 306 308 319 330 333 330 318 312 316 316 316 322 317 314 315 311 306 297 289 283 279 278 276 274 271 272 274 280 286 288 291 293 295 296 296 298 298 299 303 305 304 303 301 300 299 299 300 304 306 307 307 304 301 299 295 291 289 286 285 285 286 288 288 285 278 272 267 264 261 258 254 253 252 250 249 249 248 247 246 244 244 244 245 248 249 249 249 248 250 249 246 242 240
347 330 311 308 308 310 321 332 333 330 318 312 322 320 316 324 320 319 325 319 309 295 283 275 271 269 266 266 268 272 277 282 286 288 291 293 294 296 297 299 301 302 303 305 308 310 308 307 306 307 308 310 310 308 306 300 297 296 292 290 289 286 284 284 284 286 288 289 286 280 273 266 262 260 256 253 252 250 249 249 248 248 248 247 246 243 241 242 243 244 245 245 248 250 250 247 244
354 342 323 317 322 323 327 335 335 327 320 318 328 322 316 329 335 333 333 321 310 297 284 273 266 262 260 263 267 271 277 281 285 290 293 297 299 301 303 304 306 306 307 309 313 316 316 314 313 312 311 310 308 306 302 296 293 292 289 288 288 286 285 284 284 286 288 289 288 287 283 275 267 262 259 255 252 250 248 248 247 247 247 248 248 247 243 240 239 240 241 240 241 245 249 249 247
360 354 338 326 334 335 330 333 332 324 321 321 326 319 315 334 342 323 321 317 314 303 286 270 259 257 258 263 271 275 283 289 292 297 300 303 306 307 309 311 311 311 313 315 317 318 318 316 314 312 310 308 305 302 299 295 292 290 282 278 279 279 280 283 284 285 287 287 286 286 286 284 278 269 263 259 253 250 248 246 246 246 245 246 247 248 248 244 239 237 239 240 238 238 242 246 248
2 358 344 333 339 341 329 326 324 319 324 327 326 320 315 331 340 320 326 327 319 304 278 261 251 254 262 268 277 283 291 298 300 303 307 310 312 314 315 316 316 317 318 319 319 319 318 316 313 310 308 305 301 298 298 296 295 293 281 273 277 279 280 283 284 285 285 284 283 283 283 284 284 279 270 263 256 251 248 246 245 245 245 244 245 247 248 248 245 240 239 241 242 239 238 242 246
356 354 344 339 340 338 330 327 323 319 326 333 333 329 314 326 346 341 333 329 313 290 262 250 249 258 270 278 289 297 301 305 308 311 313 316 317 318 318 318 318 319 320 321 319 318 317 316 314 311 310 307 303 300 299 298 297 295 287 279 280 282 284 285 286 287 286 283 283 284 283 282 283 282 277 267 259 253 250 249 246 244 244 244 243 244 245 247 248 246 242 242 245 244 240 238 241
350 347 343 343 338 333 330 329 322 316 317 320 330 351 316 318 329 332 329 321 293 270 251 249 256 263 283 298 305 311 313 313 313 315 316 318 319 319 319 320 320 321 322 321 319 318 317 316 314 313 313 311 306 302 301 300 295 291 288 283 281 281 281 282 284 286 285 283 283 284 284 283 282 282 279 272 262 256 253 252 249 245 242 241 241 241 242 244 246 247 246 243 244 246 245 241 238
343 340 340 342 339 335 335 330 321 319 318 313 325 359 332 313 316 323 324 308 263 252 248 251 264 278 297 307 311 313 315 315 315 317 318 320 321 322 323 325 325 324 323 322 319 317 316 315 313 313 312 310 306 301 300 301 296 290 286 282 281 282 281 279 281 282 282 281 281 282 282 281 280 279 279 275 266 258 254 252 252 249 244 239 238 238 239 240 242 244 245 245 244 244 246 246 243
339 335 335 340 340 340 340 334 332 332 321 307 337 358 345 307 314 325 325 293 256 258 264 263 289 305 307 309 313 314 315 316 318 321 323 324 326 327 328 329 327 324 323 321 318 316 314 313 312 311 308 306 303 299 298 298 297 293 289 285 283 284 284 282 279 278 279 279 279 280 281 281 278 277 277 276 271 262 255 252 252 252 249 243 238 236 235 235 237 238 240 242 243 243 243 246 247
339 332 334 339 345 346 347 337 337 331 309 285 348 353 347 303 317 336 8 315 292 279 272 276 301 307 311 315 319 321 320 321 323 325 325 325 327 328 328 327 325 323 322 320 319 317 315 313 311 308 306 305 301 298 298 297 295 293 290 287 285 283 283 283 281 279 279 280 278 277 281 283 280 277 275 274 273 267 258 254 252 252 252 248 242 237 234 233 233 234 235 236 239 240 241 244 247
338 336 340 343 348 353 358 278 334 327 275 285 341 338 335 307 317 339 347 342 331 282 267 290 306 310 317 322 325 326 326 326 325 324 324 325 326 325 324 324 323 323 322 322 321 318 316 313 311 308 306 306 304 301 300 296 293 290 287 285 285 283 282 282 282 280 278 279 280 278 281 285 281 278 276 272 270 268 262 257 255 254 256 253 248 241 236 233 231 231 232 232 234 236 238 240 244
338 341 349 348 347 353 354 316 343 354 288 325 328 331 328 298 286 326 336 338 321 288 294 318 320 318 321 322 324 325 326 326 325 325 325 325 323 321 322 323 323 323 323 322 320 318 317 315 313 310 308 308 308 306 304 300 296 291 286 284 283 281 280 281 281 280 279 280 281 281 283 285 280 275 276 272 268 264 258 255 254 254 258 260 256 248 240 235 232 230 229 228 230 232 234 236 240
338 345 356 358 347 349 348 333 347 311 294 315 324 328 320 293 303 329 333 335 321 292 304 320 319 318 320 321 323 325 327 326 325 323 321 319 320 320 322 323 323 323 322 321 319 317 317 316 315 314 312 311 311 309 306 302 299 295 289 284 281 280 279 279 279 280 279 280 281 283 284 282 273 265 270 271 268 263 256 254 253 249 249 254 256 252 246 241 237 234 230 227 226 228 231 234 237
340 351 357 1 346 336 324 312 315 283 298 311 320 320 306 304 328 332 328 333 318 284 299 317 322 324 325 324 325 325 323 322 320 319 318 320 322 323 323 325 325 324 321 320 319 318 318 317 317 316 314 313 313 311 305 298 296 295 292 287 283 283 283 282 282 281 280 281 281 281 280 274 266 263 267 268 266 264 258 256 256 251 247 248 249 247 248 251 248 243 236 229 226 225 227 231 234
337 350 352 345 334 317 255 280 289 286 298 307 315 315 296 314 330 325 313 312 322 316 319 321 320 322 321 319 319 318 318 319 320 321 323 324 326 325 325 327 326 323 321 321 321 320 319 318 316 315 313 314 314 309 300 293 291 289 287 286 283 283 285 285 286 284 283 284 283 280 275 268 264 265 268 266 262 261 261 260 259 256 250 244 242 241 245 251 253 253 246 235 228 225 225 227 230
330 343 346 337 329 307 265 272 283 286 291 301 308 300 292 310 318 310 288 297 313 311 314 315 315 318 317 316 317 319 323 324 324 325 325 326 326 326 327 328 326 324 323 323 321 320 319 316 313 312 312 313 312 305 297 291 288 284 282 283 282 283 285 287 288 286 285 284 282 280 276 268 262 262 265 263 259 258 261 262 260 258 251 242 238 242 245 246 249 255 255 246 234 227 227 227 227
328 340 342 336 326 303 280 281 289 291 285 294 300 297 305 316 319 303 281 293 300 303 314 320 321 321 319 319 323 327 327 326 326 327 327 326 326 327 329 329 327 326 324 322 320 318 316 313 311 312 313 311 308 301 295 289 284 282 283 286 285 285 287 288 290 288 286 284 280 277 275 267 258 258 261 259 256 257 259 260 259 257 253 244 240 241 241 242 247 250 254 254 243 232 230 230 228
327 340 340 336 325 301 295 292 299 297 277 292 299 303 312 318 318 306 302 306 313 321 328 328 324 323 323 326 329 328 328 327 328 329 327 326 327 329 332 331 327 324 322 320 318 316 314 313 313 313 312 311 308 299 289 284 284 284 288 292 289 285 286 287 288 288 286 286 282 275 269 262 255 254 256 255 255 257 258 260 259 257 253 246 242 239 237 238 243 246 247 252 249 238 233 233 231
323 333 335 334 310 298 309 303 300 300 288 292 302 306 311 316 315 316 319 326 331 331 329 327 326 326 328 329 329 329 329 329 329 330 329 328 328 331 332 328 324 322 321 321 319 319 318 317 316 314 309 307 306 297 288 284 285 289 293 295 291 287 287 287 284 284 285 287 286 277 265 256 252 251 251 252 255 256 257 258 259 258 254 248 244 242 240 239 241 244 245 247 247 243 237 235 234
323 328 333 333 298 296 304 298 290 290 290 295 307 308 315 332 322 318 325 331 332 330 327 328 328 328 329 329 329 330 330 330 331 332 331 330 330 331 327 323 321 322 322 324 324 324 323 321 320 318 312 307 303 297 291 288 290 294 296 295 292 290 290 288 282 280 283 285 285 277 264 253 249 248 247 250 255 255 254 256 258 260 256 249 246 244 243 242 241 241 243 244 244 244 241 238 236
325 327 331 329 314 309 304 294 289 286 285 296 312 299 306 320 314 305 318 327 328 326 324 326 328 328 329 329 329 331 331 332 334 334 332 330 328 326 323 322 324 324 325 327 330 329 325 324 324 320 314 307 300 294 289 289 292 296 297 294 292 290 289 286 280 278 280 283 284 276 262 251 247 246 245 247 252 253 254 256 257 260 260 253 248 245 243 243 243 242 242 242 242 243 242 239 238
327 327 327 323 320 315 303 293 295 293 287 293 301 290 304 313 297 295 318 325 325 322 320 324 329 329 329 329 331 333 333 335 336 334 330 327 325 324 326 327 328 327 328 330 333 332 327 322 317 310 302 296 292 289 288 290 293 295 296 295 291 288 286 282 277 275 278 281 281 274 262 251 246 245 244 244 248 251 254 255 254 255 257 254 249 245 243 243 242 242 243 242 241 242 242 239 237